Terminal Aerodrome Forecast
Issued by NWS Des Moines, IA

Home | Current Version | Previous Version | Text Only | Print | Product List | Glossary On
Versions: 1 2 3 4 5 6 7 8 9 10 11 12 13 14 15 16 17 18 19 20 21 22 23 24 25 26 27 28 29 30 31 32 33 34 35 36 37 38 39 40
000
FTUS43 KDMX 191734
TAFDSM
TAF
KDSM 191734Z 1918/2018 19018G26KT P6SM BKN250
     FM200100 20013KT P6SM SCT035 BKN250
     FM200900 24010KT P6SM VCTS SCT030CB BKN120
     FM201200 28009KT P6SM SCT050=

USA.gov is the U.S. government's official web portal to all federal, state and local government web resources and services.